Location: Peebles
(55.6412°N, 3.1714°W)
Time: 02:12:37
(UTC+01:00)

deb Agena D - Pass Details

Date: 17 September 2024
Orbit: 793 x 976 km, 99.8° (Epoch: 11 October)

Event Time Altitude Azimuth Distance (km) Brightness Sun altitude
Rises 05:45:45 0° 15° (NNE) 3,404 9.8 -9.6°
Reaches altitude 10° 05:48:41 10° 358° (N) 2,495 8.9 -9.2°
Maximum altitude 05:52:30 20° 314° (NW) 1,939 7.8 -8.7°
Drops below altitude 10° 05:56:25 10° 271° (W) 2,572 8.1 -8.1°
Enters shadow 05:56:45 - 268° (W) 2,667 8.2 -8.1°
